Al Hoceima, Morocco

11:38 AM WET on February 28, 2017 (GMT +0000)
Cherif Al Idrissi

Weather History for GMTA - March, 2013

Change the Weather History Date:

Thursday, March 7, 2013

  Actual Average Record
Temperature  
Mean Temperature 68 °F -  
Max Temperature 81 °F 63 °F 81 °F (2013)
Min Temperature 55 °F 50 °F 41 °F (2008)
Cooling Degree Days 3    
Growing Degree Days 18 (Base 50)    
Moisture  
Dew Point 58 °F    
Average Humidity 70    
Maximum Humidity 88    
Minimum Humidity 43    
Precipitation  
Precipitation 0.00 in - - ()
Sea Level Pressure  
Sea Level Pressure 29.83 in    
Wind  
Wind Speed 5 mph ()    
Max Wind Speed 12 mph    
Max Gust Speed -    
Visibility 6.0 miles    
Events Rain    
Averages and records for this station are not official NWS values.
T = Trace of Precipitation, MM = Missing Value Source: Averaged Metar Reports

Daily Weather History Graph

Daily Weather History Graph

Search for Another Location

Airport or City:

Trip Planner

Search our weather history database for the weather conditions in past years. The results will help you decide how hot, cold, wet, or windy it might be!

Date:

Astronomy

Mar. 07, 2013 Rise Set
Actual Time 6:37 AM WET 6:16 PM WET
Civil Twilight 6:11 AM WET 6:41 PM WET
Nautical Twilight 5:42 AM WET 7:11 PM WET
Astronomical Twilight 5:12 AM WET 7:40 PM WET
Moon 3:16 AM WET (3/7) 1:56 PM WET (3/7)
Length of Visible Light 12h 29m
Length of Day
11h 39m
Waning Crescent, 22% of the Moon is Illuminated
Mar 7
Waning Crescent
Mar 11
New
Mar 19
First Quarter
Mar 27
Full
Apr 3
Last Quarter

Hourly Weather History & Observations

Time (WET) Temp. Heat Index Dew Point Humidity Pressure Visibility Wind Dir Wind Speed Gust Speed Precip Events Conditions
6:00 AM 57 °F - 50 °F 69% 29.81 in 6 mi WSW 4.6 mph - -   Partly Cloudy
6:00 AM 57.2 °F - 50.0 °F 77% 29.80 in - WSW 4.6 mph - N/A   Clear
7:00 AM 55.4 °F - 50.0 °F 82% 29.80 in - West 2.3 mph - N/A   Clear
8:00 AM 62.6 °F - 55.4 °F 77% 29.80 in - East 2.3 mph - N/A   Clear
9:00 AM 63 °F - 56 °F 70% 29.85 in 6 mi ENE 2.3 mph - -   Partly Cloudy
9:00 AM 62.6 °F - 55.4 °F 77% 29.83 in - ENE 2.3 mph - N/A   Clear
10:00 AM 71.6 °F - 60.8 °F 69% 29.83 in 6.2 mi NE 3.5 mph - N/A   Partly Cloudy
11:00 AM 69.8 °F - 57.2 °F 64% 29.83 in 6.2 mi NNE 6.9 mph - N/A   Scattered Clouds
12:00 PM 72 °F - 61 °F 60% 29.83 in 9 mi NE 11.5 mph - -   Partly Cloudy
12:00 PM 73.4 °F - 60.8 °F 65% 29.83 in 6.2 mi NE 11.5 mph - N/A   Scattered Clouds
1:00 PM 73.4 °F - 60.8 °F 65% 29.83 in 6.2 mi ENE 6.9 mph - N/A   Partly Cloudy
2:00 PM 73.4 °F - 60.8 °F 65% 29.80 in 6.2 mi NNE 9.2 mph - N/A   Scattered Clouds
3:00 PM 80 °F - 61 °F 43% 29.81 in 6 mi WSW 11.5 mph - -   Mostly Cloudy
3:00 PM 80.6 °F 81.5 °F 60.8 °F 51% 29.80 in 6.2 mi WSW 11.5 mph - N/A   Partly Cloudy
4:00 PM 68.0 °F - 57.2 °F 68% 29.80 in 6.2 mi NE 11.5 mph - N/A   Partly Cloudy
5:00 PM 68.0 °F - 59.0 °F 73% 29.83 in 6.2 mi NE 4.6 mph - N/A   Partly Cloudy
6:00 PM 67 °F - 58 °F 66% 29.83 in 6 mi North 2.3 mph - -   Mostly Cloudy
6:00 PM 68.0 °F - 59.0 °F 73% 29.83 in 6.2 mi North 2.3 mph - N/A   Partly Cloudy
7:00 PM 64.4 °F - 59.0 °F 83% 29.86 in 5.0 mi WNW 2.3 mph - N/A Rain Rain
8:00 PM 64.4 °F - 59.0 °F 83% 29.89 in 5.0 mi West 2.3 mph - N/A   Scattered Clouds
9:00 PM 63 °F - 58 °F 80% 29.93 in 5 mi NNE 2.3 mph - - Rain Light Rain
9:00 PM 62.6 °F - 59.0 °F 88% 29.92 in 5.0 mi NNE 2.3 mph - N/A   Scattered Clouds